This demonstration page uses our WeatherBlox Daily Observations layout. Learn more.

Left ArrowRight Arrow

36.17497, -115.13722

Hourly Observations for January 30, 2017

Temp ( °F °C ) Dew Point ( °F °C ) Humidity (%) Winds ( mph kmh ) Pressure ( in mb ) Visibility ( mi km ) Precip ( " mm )
12:53 am 00:53 Clear 43 6.1 28 -2.2 56 56 N N/A 30.39 1029 10 16 N/A
1:53 am 01:53 Clear 42 5.6 28 -2.2 58 58 NNW 6 9 30.38 1029 10 16 N/A
2:53 am 02:53 Clear 45 7.2 26 -3.3 48 48 N 7 11 30.36 1028 10 16 N/A
3:53 am 03:53 Clear 43 6.1 26 -3.3 51 51 N N/A 30.35 1028 10 16 N/A
4:53 am 04:53 Clear 40 4.4 27 -2.8 60 60 NW 5 7 30.35 1028 10 16 N/A
5:53 am 05:53 Clear 40 4.4 27 -2.8 60 60 NNW 3 6 30.37 1028 10 16 N/A
6:53 am 06:53 Sunny 41 5 27 -2.8 57 57 N N/A 30.39 1029 10 16 N/A
7:53 am 07:53 Sunny 45 7.2 27 -2.8 49 49 NE 6 9 30.40 1029 10 16 N/A
8:53 am 08:53 Sunny 49 9.4 26 -3.3 41 41 N N/A 30.39 1029 10 16 N/A
9:53 am 09:53 Sunny 52 11.1 27 -2.8 38 38 N N/A 30.40 1029 10 16 N/A
10:53 am 10:53 Sunny 55 12.8 27 -2.8 34 34 N N/A 30.37 1028 10 16 N/A
11:53 am 11:53 Sunny 59 15 25 -3.9 27 27 N N/A 30.33 1027 10 16 N/A
12:53 pm 12:53 Sunny 61 16.1 25 -3.9 25 25 N N/A 30.30 1026 10 16 N/A
1:53 pm 13:53 Sunny 62 16.7 25 -3.9 24 24 N N/A 30.27 1025 10 16 N/A
2:53 pm 14:53 Sunny 64 17.8 25 -3.9 23 23 N N/A 30.25 1024 10 16 N/A
3:53 pm 15:53 Sunny 63 17.2 25 -3.9 24 24 SE 3 6 30.25 1024 10 16 N/A
4:53 pm 16:53 Sunny 60 15.6 26 -3.3 27 27 N N/A 30.25 1024 10 16 N/A
5:53 pm 17:53 Clear 58 14.4 27 -2.8 31 31 N N/A 30.25 1025 10 16 N/A
6:53 pm 18:53 Clear 55 12.8 29 -1.7 37 37 N N/A 30.26 1025 10 16 N/A
7:53 pm 19:53 Clear 51 10.6 32 undefined 48 48 NW 6 9 30.26 1025 10 16 N/A
8:53 pm 20:53 Clear 49 9.4 33 0.6 55 55 NW 6 9 30.26 1025 10 16 N/A
9:53 pm 21:53 Clear 46 7.8 33 0.6 61 61 NNW 3 6 30.25 1024 10 16 N/A
10:53 pm 22:53 Clear 45 7.2 32 undefined 61 61 NNW 3 6 30.24 1024 10 16 N/A
11:53 pm 23:53 Clear 44 6.7 31 -0.6 60 60 NW 5 7 30.23 1024 10 16 N/A

Powered by AerisWeather